Location: Newark
(34.9500°N, 139.9667°E)
Time: 06:33:49
(UTC+00:00)

deb Explorer IX - Pass Details

Date: 17 December 2019
Orbit: 548 x 1101 km, 38.8° (Epoch: 20 January)

Event Time Altitude Azimuth Distance (km) Brightness Sun altitude
Rises 10:38:51 0° 283° (WNW) 3,532 ? -37.7°
Reaches altitude 10° 10:41:40 10° 272° (W) 2,674 ? -38.3°
Enters shadow 10:46:51 28° 219° (SW) 1,803 ? -39.3°
